Location: Bergen
(60.3910°N, 5.3250°E)
Time: 03:42:10
(UTC+02:00)

ISS - Pass Details

Date: 01 October 2021
Orbit: 417 x 423 km, 51.6° (Epoch: 22 October)

Event Time Altitude Azimuth Distance (km) Brightness Sun altitude
Rises 20:14:21 0° 259° (W) 2,366 1.6 -8.7°
Reaches altitude 10° 20:17:14 10° 232° (SW) 1,501 -0.3 -9.1°
Maximum altitude 20:18:59 14° 200° (SSW) 1,301 -1.1 -9.3°
Drops below altitude 10° 20:20:44 10° 169° (S) 1,500 -1.2 -9.5°
Enters shadow 20:22:24 - 150° (SSE) 1,956 -0.7 -9.7°
